Вернуться в каталог

DMSP 5D-2 F13 DEB

АктивенSSO
NORAD 42267·DEBRIS·🇺🇸 United States

Запущен Mar 24, 1995 с Vandenberg Space Force Base

Loading…

Ближайшие Пролёты (ближайшие 24 часа)

TLE

СвежийSource: Space-Track

Эпоха: Sep 12, 2026, 03:15 UTC

1 42267U 95015GH  26255.13591352  .00003016  00000-0  13739-2 0  9995
2 42267  98.7311 140.6265 0080393 319.7202  39.8037 14.20711928583228

Отслеживайте DMSP 5D-2 F13 DEB в реальном времени с AllMySat

Download on the App Store